Terminal Aerodrome Forecast
Issued by NWS

Home | Current Version | Previous Version | Text Only | Print | Product List | Glossary On
Versions: 1 2 3 4 5 6 7 8 9 10 11 12 13 14 15 16 17
000
FTUS43 KLSX 291135
TAFSUS
TAF
KSUS 291135Z 2912/3012 28006KT P6SM SCT040
     FM291500 32007KT P6SM SCT040 SCT080
     FM291800 33007KT P6SM VCTS BKN040CB
     FM292100 35009KT P6SM SCT050
     FM300200 34003KT P6SM SCT150=

USA.gov is the U.S. government's official web portal to all federal, state and local government web resources and services.